DW5242 Weather Reports


time (UTC)temp
F
wind
direction
speed
knots
gust
knots
rain 1hr
in
rain 24hr
in
rain mn
in
humidity
%
barometer
mb
20190526202024 83 233 0.0 0.0 0.00 0.00 0.00 18 1012.0
20190526201531 83 231 0.9 0.0 0.00 0.00 0.00 18 1012.1
20190526201017 83 225 0.9 0.0 0.00 0.00 0.00 18 1012.2
20190526200535 83 202 0.0 0.0 0.00 0.00 0.00 18 1012.2
20190526200031 82 229 0.9 0.0 0.00 0.00 0.00 19 1012.2
20190526195517 83 220 0.9 0.0 0.00 0.00 0.00 19 1012.3
20190526195029 82 217 0.9 0.0 0.00 0.00 0.00 18 1012.4
20190526194531 82 189 0.9 0.0 0.00 0.00 0.00 18 1012.4
20190526194034 82 197 0.9 0.0 0.00 0.00 0.00 18 1012.5
20190526193523 83 257 0.0 0.0 0.00 0.00 0.00 20 1012.4
20190526193027 82 197 0.9 0.0 0.00 0.00 0.00 19 1012.5
20190526192535 82 188 0.9 0.0 0.00 0.00 0.00 18 1012.5
20190526192019 82 193 1.7 0.0 0.00 0.00 0.00 19 1012.4
20190526191523 82 195 2.6 0.0 0.00 0.00 0.00 19 1012.4
20190526191047 81 188 1.7 0.0 0.00 0.00 0.00 18 1012.4
20190526190529 81 238 1.7 0.0 0.00 0.00 0.00 20 1012.3
20190526190021 82 202 1.7 0.0 0.00 0.00 0.00 19 1012.5
20190526185524 82 157 1.7 0.0 0.00 0.00 0.00 19 1012.5
20190526185030 81 268 1.7 0.0 0.00 0.00 0.00 20 1012.5
20190526184534 81 203 1.7 0.0 0.00 0.00 0.00 19 1012.4
20190526184018 81 218 1.7 0.0 0.00 0.00 0.00 19 1012.4
20190526183522 81 188 1.7 0.0 0.00 0.00 0.00 19 1012.3
20190526183114 81 259 1.7 0.0 0.00 0.00 0.00 19 1012.4
20190526160538 78 80 0.0 0.0 0.00 0.00 0.00 24 1010.9
20190526160019 78 126 0.0 0.0 0.00 0.00 0.00 24 1011.0
20190526155524 78 185 0.0 0.0 0.00 0.00 0.00 24 1011.1
20190526155026 77 142 0.0 0.0 0.00 0.00 0.00 24 1011.1
20190526154531 76 166 0.0 0.0 0.00 0.00 0.00 24 1011.0
20190526154033 76 102 0.0 0.0 0.00 0.00 0.00 26 1011.0
20190526153535 76 176 0.0 0.0 0.00 0.00 0.00 26 1010.9
20190526153037 76 188 0.0 0.0 0.00 0.00 0.00 26 1010.9
20190526152519 76 204 0.0 0.0 0.00 0.00 0.00 27 1010.9
20190526152021 75 241 0.0 0.0 0.00 0.00 0.00 27 1010.9
20190526151523 75 201 0.0 0.0 0.00 0.00 0.00 27 1010.8
20190526151025 75 209 0.0 0.0 0.00 0.00 0.00 27 1009.8
20190526150541 75 194 0.0 0.0 0.00 0.00 0.00 27 1009.6
20190526150033 75 178 0.0 0.0 0.00 0.00 0.00 27 1009.6
20190526145521 74 124 0.0 0.0 0.00 0.00 0.00 28 1009.5
20190526145023 74 195 0.0 0.0 0.00 0.00 0.00 28 1009.7
20190526144528 74 161 0.0 0.0 0.00 0.00 0.00 27 1009.6
20190526144029 74 149 0.0 0.0 0.00 0.00 0.00 28 1009.6
20190526143533 74 124 0.0 0.0 0.00 0.00 0.00 28 1009.6
20190526143034 73 142 0.0 0.0 0.00 0.00 0.00 28 1009.6
20190526142536 73 119 0.0 0.0 0.00 0.00 0.00 29 1009.6
20190526142022 72 115 0.0 0.0 0.00 0.00 0.00 29 1009.7
20190526141528 71 70 0.0 0.0 0.00 0.00 0.00 30 1009.7
20190526141030 71 61 0.0 0.0 0.00 0.00 0.00 31 1009.9
20190526140530 70 87 0.0 0.0 0.00 0.00 0.00 32 1010.0
20190526140021 69 70 0.0 0.0 0.00 0.00 0.00 33 1010.0
20190526135526 68 56 0.0 0.0 0.00 0.00 0.00 34 1009.9
20190526135027 67 144 0.0 0.0 0.00 0.00 0.00 34 1010.2
20190526134532 67 229 0.0 0.0 0.00 0.00 0.00 33 1010.1
20190526134021 67 217 0.0 0.0 0.00 0.00 0.00 33 1010.1
20190526133527 67 202 0.0 0.0 0.00 0.00 0.00 33 1009.9
20190526133028 67 202 0.0 0.0 0.00 0.00 0.00 33 1009.8
20190526132533 66 62 0.0 0.0 0.00 0.00 0.00 34 1009.8
20190526132022 66 103 0.0 0.0 0.00 0.00 0.00 34 1009.7
20190526131528 65 96 0.0 0.0 0.00 0.00 0.00 35 1009.6
20190526131030 65 74 0.0 0.0 0.00 0.00 0.00 35 1009.7
20190526130529 64 71 0.0 0.0 0.00 0.00 0.00 35 1009.6
20190526130026 63 72 0.0 0.0 0.00 0.00 0.00 36 1009.5
20190526125530 62 66 0.0 0.0 0.00 0.00 0.00 37 1009.4
20190526125033 61 64 0.0 0.0 0.00 0.00 0.00 37 1009.3
20190526124517 60 61 0.0 0.0 0.00 0.00 0.00 39 1009.4
20190526124023 60 59 0.0 0.0 0.00 0.00 0.00 39 1009.5
20190526123525 59 60 0.0 0.0 0.00 0.00 0.00 39 1009.4
20190526123026 59 107 0.0 0.0 0.00 0.00 0.00 37 1009.3
20190526122527 59 107 0.0 0.0 0.00 0.00 0.00 37 1009.2
20190526122016 59 144 0.0 0.0 0.00 0.00 0.00 37 1009.2
20190526121525 59 133 0.0 0.0 0.00 0.00 0.00 37 1009.0
20190526121026 60 134 0.0 0.0 0.00 0.00 0.00 38 1009.0
20190526120547 60 133 0.0 0.0 0.00 0.00 0.00 38 1008.9
20190526120017 61 111 0.0 0.0 0.00 0.00 0.00 38 1008.9
20190526115522 61 86 0.0 0.0 0.00 0.00 0.00 39 1008.8
20190526115024 61 86 0.0 0.0 0.00 0.00 0.00 39 1008.8
20190526114526 61 86 0.0 0.0 0.00 0.00 0.00 38 1008.7
20190526114034 62 86 0.0 0.0 0.00 0.00 0.00 37 1008.8
20190526113517 62 95 0.0 0.0 0.00 0.00 0.00 35 1009.0
20190526113025 63 114 0.0 0.0 0.00 0.00 0.00 34 1009.1
20190526112533 64 109 0.0 0.0 0.00 0.00 0.00 33 1009.2
20190526112021 65 80 0.0 0.0 0.00 0.00 0.00 34 1009.2
20190526111523 65 54 0.0 0.0 0.00 0.00 0.00 33 1009.1
20190526111025 66 59 0.0 0.0 0.00 0.00 0.00 33 1009.2
20190526110542 66 59 0.0 0.0 0.00 0.00 0.00 32 1009.3
20190526110034 66 58 0.0 0.0 0.00 0.00 0.00 32 1009.3
20190526105535 66 58 0.0 0.0 0.00 0.00 0.00 31 1009.4
20190526105017 66 59 0.0 0.0 0.00 0.00 0.00 30 1009.3
20190526104519 67 59 0.0 0.0 0.00 0.00 0.00 30 1009.3
20190526104032 66 65 0.0 0.0 0.00 0.00 0.00 30 1009.4
20190526103523 66 54 0.0 0.0 0.00 0.00 0.00 29 1009.5
20190526103028 66 54 0.0 0.0 0.00 0.00 0.00 28 1009.5
20190526102537 67 54 0.0 0.0 0.00 0.00 0.00 27 1009.5
20190526102022 67 54 0.0 0.0 0.00 0.00 0.00 27 1009.5
20190526101529 67 52 0.0 0.0 0.00 0.00 0.00 27 1009.5
20190526101032 67 59 0.0 0.0 0.00 0.00 0.00 26 1009.6
20190526100529 67 57 0.0 0.0 0.00 0.00 0.00 25 1009.6
20190526100025 67 57 0.0 0.0 0.00 0.00 0.00 25 1009.6
20190526095528 67 57 0.0 0.0 0.00 0.00 0.00 25 1009.7
20190526095017 67 39 0.0 0.0 0.00 0.00 0.00 25 1009.7
20190526094522 67 69 0.0 0.0 0.00 0.00 0.00 24 1009.7
20190526094024 67 61 0.0 0.0 0.00 0.00 0.00 25 1009.7
20190526093529 66 67 0.0 0.0 0.00 0.00 0.00 24 1009.8
20190526093032 66 61 0.0 0.0 0.00 0.00 0.00 25 1009.8
20190526092517 66 67 0.0 0.0 0.00 0.00 0.00 25 1009.9
20190526092017 66 54 0.0 0.0 0.00 0.00 0.00 25 1009.9
20190526091522 66 66 0.0 0.0 0.00 0.00 0.00 26 1009.9
20190526091024 65 50 0.0 0.0 0.00 0.00 0.00 26 1010.0
20190526090538 66 65 0.0 0.0 0.00 0.00 0.00 26 1010.0
20190526090035 66 66 0.0 0.0 0.00 0.00 0.00 25 1010.1
20190526085524 66 67 0.0 0.0 0.00 0.00 0.00 25 1010.2
20190526085026 66 67 0.0 0.0 0.00 0.00 0.00 25 1010.2
20190526084517 66 66 0.0 0.0 0.00 0.00 0.00 24 1010.2
20190526084023 67 66 0.0 0.0 0.00 0.00 0.00 24 1010.3
20190526083524 67 66 0.0 0.0 0.00 0.00 0.00 24 1010.2
20190526083026 67 66 0.0 0.0 0.00 0.00 0.00 24 1010.2
20190526082532 67 66 0.0 0.0 0.00 0.00 0.00 24 1010.3
20190526082017 67 66 0.0 0.0 0.00 0.00 0.00 24 1010.3
20190526081522 67 65 0.0 0.0 0.00 0.00 0.00 23 1010.2
20190526081024 67 65 0.0 0.0 0.00 0.00 0.00 23 1010.3
20190526080541 67 63 0.0 0.0 0.00 0.00 0.00 23 1010.2
20190526080036 67 53 0.0 0.0 0.00 0.00 0.00 23 1010.2
20190526075524 67 67 0.0 0.0 0.00 0.00 0.00 22 1010.3
20190526075029 67 69 0.0 0.0 0.00 0.00 0.00 22 1010.2
20190526074532 67 71 0.0 0.0 0.00 0.00 0.00 22 1010.3
20190526074017 67 63 0.0 0.0 0.00 0.00 0.00 22 1010.2
20190526073522 67 63 0.0 0.0 0.00 0.00 0.00 22 1010.2
20190526073024 68 63 0.0 0.0 0.00 0.00 0.00 22 1010.2
20190526072532 67 64 0.0 0.0 0.00 0.00 0.00 22 1010.2
20190526072034 67 65 0.0 0.0 0.00 0.00 0.00 23 1010.3
20190526071519 67 53 0.0 0.0 0.00 0.00 0.00 23 1010.3
20190526071029 67 54 0.0 0.0 0.00 0.00 0.00 23 1010.3
20190526070542 67 61 0.0 0.0 0.00 0.00 0.00 24 1010.3
20190526070033 68 5 0.0 0.0 0.00 0.00 0.00 25 1010.3
20190526065521 68 285 0.0 0.0 0.00 0.00 0.00 25 1010.3
20190526065025 69 285 0.0 0.0 0.00 0.00 0.00 24 1010.3
20190526064531 69 285 0.0 0.0 0.00 0.00 0.00 23 1010.3
20190526064033 69 285 0.0 0.0 0.00 0.00 0.00 24 1010.2
20190526063535 70 285 0.0 0.0 0.00 0.00 0.00 23 1010.2
20190526063017 70 285 0.0 0.0 0.00 0.00 0.00 23 1010.2
20190526062519 70 285 0.0 0.0 0.00 0.00 0.00 22 1010.3
20190526062031 71 285 0.0 0.0 0.00 0.00 0.00 23 1010.2
20190526061517 71 285 0.0 0.0 0.00 0.00 0.00 22 1010.1
20190526061022 71 285 0.0 0.0 0.00 0.00 0.00 22 1010.1
20190526060536 72 285 0.0 0.0 0.00 0.00 0.00 21 1010.1
20190526060027 72 285 0.0 0.0 0.00 0.00 0.00 21 1010.2
20190526055529 72 285 0.0 0.0 0.00 0.00 0.00 20 1010.3
20190526055032 73 285 0.0 0.0 0.00 0.00 0.00 18 1010.3
20190526054535 73 285 0.0 0.0 0.00 0.00 0.00 17 1010.3
20190526054017 74 285 0.0 0.0 0.00 0.00 0.00 16 1010.3
20190526053522 74 317 0.0 0.0 0.00 0.00 0.00 16 1010.4
20190526053027 74 317 0.0 0.0 0.00 0.00 0.00 16 1010.3
20190526052529 74 252 0.0 0.0 0.00 0.00 0.00 16 1010.3
20190526052035 74 190 0.0 0.0 0.00 0.00 0.00 16 1010.3
20190526051517 74 190 0.0 0.0 0.00 0.00 0.00 16 1010.3
20190526051022 74 190 0.0 0.0 0.00 0.00 0.00 16 1010.2
20190526050539 73 190 0.0 0.0 0.00 0.00 0.00 15 1010.3
20190526050030 73 190 0.0 0.0 0.00 0.00 0.00 15 1010.2
20190526045535 73 190 0.0 0.0 0.00 0.00 0.00 15 1010.2
20190526045018 73 190 0.0 0.0 0.00 0.00 0.00 16 1010.2
20190526044522 73 190 0.0 0.0 0.00 0.00 0.00 16 1010.2
20190526044027 74 190 0.0 0.0 0.00 0.00 0.00 16 1010.1
20190526043532 74 190 0.0 0.0 0.00 0.00 0.00 16 1010.1
20190526043018 75 190 0.0 0.0 0.00 0.00 0.00 15 1010.0
20190526042522 75 190 0.0 0.0 0.00 0.00 0.00 15 1010.0
20190526042025 76 190 0.0 0.0 0.00 0.00 0.00 14 1010.0
20190526041531 77 190 0.0 0.0 0.00 0.00 0.00 14 1009.9
20190526041035 78 190 0.0 0.0 0.00 0.00 0.00 13 1009.9
20190526040530 78 190 0.0 0.0 0.00 0.00 0.00 12 1009.8
20190526040021 79 190 0.0 0.0 0.00 0.00 0.00 12 1009.7
20190526035528 79 190 0.0 0.0 0.00 0.00 0.00 12 1009.6
20190526035017 79 190 0.0 0.0 0.00 0.00 0.00 12 1009.5
20190526034519 79 190 0.0 0.0 0.00 0.00 0.00 12 1009.4
20190526034021 80 215 0.0 0.0 0.00 0.00 0.00 12 1009.3
20190526033530 80 215 0.0 0.0 0.00 0.00 0.00 12 1009.3
20190526033035 80 213 0.0 0.0 0.00 0.00 0.00 11 1009.3
20190526032518 80 241 0.0 0.0 0.00 0.00 0.00 11 1009.3
20190526032023 80 234 0.0 0.0 0.00 0.00 0.00 11 1009.3
20190526031524 81 234 0.0 0.0 0.00 0.00 0.00 11 1009.2
20190526031030 81 234 0.0 0.0 0.00 0.00 0.00 11 1009.1
20190526030528 81 234 0.0 0.0 0.00 0.00 0.00 11 1009.1
20190526030018 81 234 0.0 0.0 0.00 0.00 0.00 11 1009.0
20190526025523 82 219 0.0 0.0 0.00 0.00 0.00 10 1008.9
20190526025028 82 219 0.0 0.0 0.00 0.00 0.00 10 1008.9
20190526024521 82 222 0.0 0.0 0.00 0.00 0.00 10 1008.9
20190526024025 82 199 0.0 0.0 0.00 0.00 0.00 10 1008.9
20190526023528 83 198 0.0 0.0 0.00 0.00 0.00 10 1008.7
20190526023019 83 214 0.0 0.0 0.00 0.00 0.00 10 1008.6
20190526022523 83 196 0.0 0.0 0.00 0.00 0.00 10 1008.6
20190526022025 84 205 0.0 0.0 0.00 0.00 0.00 10 1008.6
20190526021527 84 216 0.0 0.0 0.00 0.00 0.00 10 1008.6
20190526021032 85 221 0.0 0.0 0.00 0.00 0.00 10 1008.5
20190526020534 85 215 0.0 0.0 0.00 0.00 0.00 9 1008.5
20190526020023 85 210 0.0 0.0 0.00 0.00 0.00 9 1008.4
20190526015526 86 197 0.0 0.0 0.00 0.00 0.00 9 1008.5
20190526015033 86 207 0.0 0.0 0.00 0.00 0.00 9 1008.4
20190526014517 86 199 0.0 0.0 0.00 0.00 0.00 9 1008.4
20190526014023 87 205 0.9 0.0 0.00 0.00 0.00 9 1008.4
20190526013524 87 179 0.0 0.0 0.00 0.00 0.00 9 1008.3
20190526013027 87 232 0.0 0.0 0.00 0.00 0.00 9 1008.3
20190526012532 87 205 0.0 0.0 0.00 0.00 0.00 9 1008.3
20190526012034 88 186 0.0 0.0 0.00 0.00 0.00 9 1008.3
20190526011522 88 195 0.0 0.0 0.00 0.00 0.00 9 1008.4
20190526011024 88 246 0.0 0.0 0.00 0.00 0.00 9 1008.3
20190526010544 88 226 0.0 0.0 0.00 0.00 0.00 9 1008.3
20190526010019 89 209 0.0 0.0 0.00 0.00 0.00 9 1008.3
20190526005524 89 209 0.0 0.0 0.00 0.00 0.00 9 1008.4
20190526005026 89 179 0.0 0.0 0.00 0.00 0.00 9 1008.4
20190526004532 89 212 0.0 0.0 0.00 0.00 0.00 9 1008.5
20190526004017 89 198 0.0 0.0 0.00 0.00 0.00 9 1008.5
20190526003522 89 215 0.0 0.0 0.00 0.00 0.00 9 1008.5
20190526003024 89 215 0.0 0.0 0.00 0.00 0.00 9 1008.6
20190526002532 89 213 0.9 0.0 0.00 0.00 0.00 9 1008.6
20190526002017 90 211 0.0 0.0 0.00 0.00 0.00 9 1008.6
20190526001523 90 204 0.0 0.0 0.00 0.00 0.00 9 1008.6
20190526001025 90 196 0.0 0.0 0.00 0.00 0.00 9 1008.6
20190526000546 90 200 0.0 0.0 0.00 0.00 0.00 9 1008.7
20190526000016 90 210 0.0 0.0 0.00 0.00 0.00 9 1008.8
20190525235522 90 211 0.0 0.0 0.00 0.00 0.00 9 1008.7
20190525235023 90 240 0.0 0.0 0.00 0.00 0.00 9 1008.8
20190525234531 90 200 0.0 0.0 0.00 0.00 0.00 9 1008.9
20190525234022 90 192 0.0 0.0 0.00 0.00 0.00 9 1009.0
20190525233527 91 214 0.0 0.0 0.00 0.00 0.00 9 1008.8
20190525233029 91 240 0.0 0.0 0.00 0.00 0.00 9 1009.0
20190525232514 91 191 0.0 0.0 0.00 0.00 0.00 9 1009.0
20190525232019 91 195 0.0 0.0 0.00 0.00 0.00 9 1009.0
20190525231532 90 142 0.0 0.0 0.00 0.00 0.00 8 1009.1
20190525231018 90 171 0.0 0.0 0.00 0.00 0.00 9 1009.1
20190525230534 91 217 0.0 0.0 0.00 0.00 0.00 8 1009.3
20190525230025 91 236 0.0 0.0 0.00 0.00 0.00 8 1009.4
20190525225516 91 252 0.0 0.0 0.00 0.00 0.00 8 1009.4
20190525225025 91 190 0.0 0.0 0.00 0.00 0.00 8 1009.4
20190525224529 91 173 0.0 0.0 0.00 0.00 0.00 9 1009.4
20190525224031 90 252 0.9 0.0 0.00 0.00 0.00 9 1009.4
20190525223533 90 256 0.9 0.0 0.00 0.00 0.00 8 1009.5
20190525223018 90 203 1.7 0.0 0.00 0.00 0.00 9 1009.6
20190525222524 89 168 2.6 0.0 0.00 0.00 0.00 9 1009.6
20190525222026 90 178 1.7 0.0 0.00 0.00 0.00 9 1009.7
20190525221531 90 198 0.9 0.0 0.00 0.00 0.00 9 1009.8
20190525221033 90 179 1.7 0.0 0.00 0.00 0.00 9 1009.7
20190525220547 90 178 0.9 0.0 0.00 0.00 0.00 9 1009.9
20190525220035 90 187 1.7 0.0 0.00 0.00 0.00 9 1009.9
20190525215517 90 170 1.7 0.0 0.00 0.00 0.00 9 1010.1
20190525215022 90 170 0.9 0.0 0.00 0.00 0.00 9 1010.2
20190525214527 90 215 0.0 0.0 0.00 0.00 0.00 9 1010.0
20190525214029 90 204 1.7 0.0 0.00 0.00 0.00 9 1010.1
20190525213531 90 233 1.7 0.0 0.00 0.00 0.00 9 1010.2
20190525213017 90 251 0.9 0.0 0.00 0.00 0.00 9 1010.2
20190525212522 90 208 0.9 0.0 0.00 0.00 0.00 9 1010.3
20190525212024 90 265 0.9 0.0 0.00 0.00 0.00 9 1010.2
20190525211529 89 175 0.0 0.0 0.00 0.00 0.00 9 1010.3
20190525211014 89 211 0.0 0.0 0.00 0.00 0.00 9 1010.4
20190525210531 88 29 0.0 0.0 0.00 0.00 0.00 9 1010.3
20190525210022 88 259 0.0 0.0 0.00 0.00 0.00 10 1010.7
20190525205524 89 323 0.0 0.0 0.00 0.00 0.00 10 1010.7
20190525205032 89 251 0.0 0.0 0.00 0.00 0.00 10 1010.7
20190525204517 88 173 0.0 0.0 0.00 0.00 0.00 10 1010.7
20190525204022 88 202 0.0 0.0 0.00 0.00 0.00 9 1010.8
20190525203528 88 201 0.0 0.0 0.00 0.00 0.00 10 1010.9
20190525203013 88 234 0.0 0.0 0.00 0.00 0.00 9 1011.0
20190525202518 87 319 0.0 0.0 0.00 0.00 0.00 11 1011.0